Location: Chuathbaluk
(61.5726°N, 159.2454°W)
Time: 23:27:47
(UTC+00:00)

Transit 4A - Pass Details

Date: 04 December 2020
Orbit: 864 x 980 km, 66.8° (Epoch: 20 January)

Event Time Altitude Azimuth Distance (km) Brightness Sun altitude
Rises 18:59:19 0° 230° (SW) 3,662 10.9 -3.7°
Reaches altitude 10° 19:01:52 10° 230° (SW) 2,725 10.3 -3.4°
Maximum altitude 19:08:17 86° 144° (SE) 992 8.2 -2.9°
Drops below altitude 10° 19:14:44 10° 55° (NE) 2,737 10.5 -2.4°
Sets 19:17:18 0° 56° (NE) 3,680 11.1 -2.2°
